Location: ????????
(41.2031°N, 22.5756°E)
Time: 05:53:51
(UTC+00:00)

Cosmos 1538 Rocket - Pass Details

Date: 01 December 2020
Orbit: 752 x 791 km, 74.0° (Epoch: 20 January)

Event Time Altitude Azimuth Distance (km) Brightness Sun altitude
Rises 16:09:32 0° 197° (SSW) 3,264 7.8 -12.6°
Reaches altitude 10° 16:11:55 10° 197° (SSW) 2,343 7.0 -13.0°
Maximum altitude 16:17:16 87° 109° (ESE) 797 4.0 -13.9°
Drops below altitude 10° 16:22:40 10° 20° (NNE) 2,364 6.2 -14.9°
Enters shadow 16:23:32 - 20° (NNE) 2,703 6.5 -15.1°
